DW2489 Weather Reports


time (UTC)temp
F
wind
direction
speed
knots
gust
knots
rain 1hr
in
rain 24hr
in
rain mn
in
humidity
%
barometer
mb
20260506202137 47 21 1.7 7.8 0.08 0.92 0.92 1005.1
20260506201636 47 48 2.6 8.7 0.08 0.92 0.92 1005.1
20260506201134 47 56 3.5 8.7 0.08 0.92 0.92 1005.1
20260506200633 47 30 2.6 8.7 0.07 0.91 0.91 1005.1
20260506200131 47 44 1.7 7.8 0.07 0.91 0.91 1005.1
20260506195628 48 9 2.6 7.8 0.07 0.91 0.91 1004.7
20260506195126 48 14 3.5 8.7 0.07 0.91 0.91 1005.1
20260506194624 48 78 2.6 8.7 0.08 0.91 0.91 1004.7
20260506194123 48 24 4.3 10.4 0.04 0.90 0.87 1005.1
20260506193449 48 23 1.7 10.4 0.02 0.95 0.85 1005.1
20260506192947 49 28 4.3 8.7 0.03 0.95 0.85 1005.1
20260506192446 49 54 4.3 8.7 0.04 0.94 0.84 1005.1
20260506191944 49 27 2.6 10.4 0.05 0.94 0.84 1005.1
20260506191442 50 79 1.7 13.0 0.06 0.94 0.84 1004.7
20260506190940 50 44 3.5 13.0 0.07 0.94 0.84 1004.7
20260506190439 50 49 4.3 13.0 0.07 0.94 0.84 1004.7
20260506185907 51 44 4.3 11.3 0.08 0.94 0.84 1004.7
20260506185406 51 67 2.6 11.3 0.09 0.94 0.84 1004.7
20260506184901 51 83 3.5 11.3 0.10 0.94 0.84 1004.7
20260506184359 51 85 1.7 8.7 0.10 0.93 0.83 1004.7
20260506183857 51 69 4.3 8.7 0.10 0.93 0.83 1004.7
20260506183356 52 0 1.7 6.1 0.11 0.93 0.83 1004.7
20260506182855 52 15 0.0 6.1 0.11 0.92 0.82 1004.7
20260506182354 52 22 2.6 5.2 0.09 0.90 0.80 1004.7
20260506181852 52 22 1.7 6.1 0.09 0.89 0.79 1004.7
20260506181350 52 22 2.6 6.1 0.09 0.88 0.78 1004.7
20260506180745 52 8 3.5 5.2 0.10 0.87 0.77 1004.7
20260506180244 52 10 2.6 3.5 0.09 0.86 0.76 1004.7
20260506175742 52 10 0.9 3.5 0.10 0.85 0.75 1004.7
20260506175240 52 10 1.7 5.2 0.11 0.85 0.75 1004.7
20260506174738 52 10 0.0 6.1 0.11 0.84 0.74 1005.1
20260506174237 52 21 2.6 6.1 0.12 0.83 0.73 1005.1
20260506173735 53 37 2.6 6.1 0.13 0.82 0.72 1004.7
20260506173233 53 28 1.7 5.2 0.13 0.81 0.71 1005.1
20260506172731 53 44 2.6 5.2 0.14 0.81 0.71 1005.1
20260506172230 53 15 0.0 5.2 0.16 0.81 0.71 1005.1
20260506171657 53 16 0.9 3.5 0.15 0.79 0.69 1005.1
20260506171156 53 15 0.0 6.1 0.15 0.78 0.68 1005.1
20260506170653 53 67 0.0 6.1 0.14 0.77 0.67 1005.1
20260506170150 53 91 5.2 6.1 0.15 0.77 0.67 1005.1
20260506165648 53 357 0.9 6.1 0.14 0.75 0.65 1005.4
20260506165146 53 76 1.7 6.1 0.14 0.74 0.64 1005.4
20260506164612 54 33 0.9 5.2 0.14 0.72 0.62 1005.4
20260506164111 54 33 1.7 3.5 0.14 0.71 0.61 1005.8
20260506163609 54 33 1.7 3.5 0.13 0.69 0.59 1005.4
20260506163108 54 33 0.0 3.5 0.13 0.68 0.58 1005.4
20260506162607 54 176 0.9 7.8 0.13 0.67 0.57 1005.4
20260506162104 54 199 0.0 7.8 0.12 0.65 0.55 1005.8
20260506161602 55 19 2.6 7.8 0.13 0.64 0.54 1005.8
20260506161059 55 55 0.0 5.2 0.13 0.63 0.53 1005.8
20260506160527 55 55 0.9 5.2 0.14 0.63 0.53 1005.8
20260506160023 55 55 1.7 5.2 0.15 0.62 0.52 1005.8
20260506155450 55 55 0.0 5.2 0.15 0.60 0.50 1005.8
20260506154918 55 55 0.0 5.2 0.15 0.59 0.49 1006.1
20260506154345 55 55 0.9 2.6 0.16 0.58 0.48 1006.1
20260506153844 55 55 0.0 2.6 0.16 0.57 0.47 1006.1
20260506153343 55 55 0.9 5.2 0.16 0.56 0.46 1006.1
20260506152838 55 55 0.9 5.2 0.15 0.54 0.44 1006.1
20260506152336 55 55 0.9 6.1 0.15 0.53 0.43 1006.1
20260506151835 55 55 0.9 6.1 0.15 0.52 0.42 1006.1
20260506151333 55 56 2.6 6.1 0.14 0.50 0.40 1006.1
20260506150832 55 56 1.7 3.5 0.14 0.49 0.39 1006.4
20260506150331 55 56 0.0 1.7 0.14 0.48 0.38 1006.4
20260506145830 55 11 0.0 0.0 0.14 0.47 0.37 1006.4
20260506145325 56 11 0.0 0.0 0.13 0.45 0.35 1006.8
20260506144751 56 12 0.0 0.0 0.12 0.43 0.33 1006.4
20260506144249 56 12 0.0 0.0 0.12 0.42 0.32 1006.8
20260506143748 56 12 0.0 0.0 0.11 0.41 0.31 1006.8
20260506143246 56 11 0.0 0.0 0.11 0.40 0.30 1006.8
20260506142744 55 11 0.0 0.0 0.10 0.39 0.29 1007.1
20260506142211 55 16 0.0 0.0 0.10 0.38 0.28 1007.1
20260506141709 55 15 0.0 0.0 0.10 0.37 0.27 1007.1
20260506141208 55 15 0.0 0.0 0.08 0.35 0.25 1007.1
20260506140707 55 14 0.0 6.1 0.08 0.34 0.24 1007.1
20260506140205 55 14 0.0 6.1 0.08 0.33 0.23 1007.5
20260506135703 55 55 0.0 3.5 0.08 0.33 0.23 1007.5
20260506135202 55 55 0.0 3.5 0.08 0.32 0.22 1007.1
20260506134701 55 55 0.0 3.5 0.08 0.31 0.21 1006.8
20260506134200 55 55 0.0 5.2 0.08 0.30 0.20 1006.8
20260506133658 55 55 0.0 5.2 0.08 0.29 0.19 1006.8
20260506133157 55 55 0.0 2.6 0.08 0.29 0.19 1006.8
20260506132625 55 55 0.0 3.5 0.09 0.29 0.19 1006.8
20260506132124 55 55 0.0 3.5 0.09 0.28 0.18 1006.8
20260506131622 55 55 0.0 3.5 0.09 0.27 0.17 1006.8
20260506131121 55 55 0.0 2.6 0.09 0.27 0.17 1006.8
20260506130619 55 55 0.0 2.6 0.09 0.26 0.16 1006.8
20260506130117 55 55 0.0 2.6 0.08 0.25 0.15 1006.8
20260506125616 55 55 0.0 2.6 0.08 0.25 0.15 1007.1
20260506125114 55 55 0.9 3.5 0.08 0.24 0.14 1007.1
20260506124542 55 55 0.0 3.5 0.07 0.23 0.13 1007.1
20260506124041 55 55 1.7 3.5 0.06 0.22 0.12 1007.1
20260506123509 55 55 0.0 3.5 0.05 0.21 0.11 1007.5
20260506122936 55 55 0.0 3.5 0.05 0.21 0.11 1007.1
20260506122435 55 55 1.7 3.5 0.04 0.20 0.10 1007.5
20260506121932 55 55 0.0 2.6 0.03 0.19 0.09 1007.5
20260506121430 55 55 0.9 2.6 0.02 0.18 0.08 1007.8
20260506120928 55 55 0.0 2.6 0.01 0.17 0.07 1007.8
20260506120426 55 55 0.0 2.6 0.01 0.17 0.07 1007.8
20260506115925 55 55 0.0 2.6 0.02 0.17 0.07 1007.8
20260506115424 55 55 0.0 2.6 0.01 0.16 0.06 1007.5
20260506114922 55 55 0.9 2.6 0.01 0.16 0.06 1007.5
20260506114421 55 55 0.0 1.7 0.01 0.16 0.06 1006.8
20260506113919 54 55 0.0 1.7 0.01 0.16 0.06 1007.1
20260506113418 54 212 0.0 0.0 0.01 0.16 0.06 1007.1
20260506112916 54 212 0.0 0.0 0.01 0.16 0.06 1006.8
20260506112343 54 212 0.0 0.0 0.01 0.16 0.06 1006.8
20260506111841 54 212 0.0 2.6 0.01 0.16 0.06 1007.1
20260506111340 54 212 0.0 2.6 0.01 0.16 0.06 1007.1
20260506110839 54 212 0.0 2.6 0.01 0.16 0.06 1007.5
20260506110234 54 212 0.0 0.0 0.01 0.16 0.06 1007.5
20260506105733 54 212 0.0 0.0 0.00 0.15 0.05 1007.1
20260506105231 54 212 0.0 0.0 0.00 0.15 0.05 1007.1
20260506104729 54 212 0.0 0.0 0.00 0.15 0.05 1007.1
20260506104228 54 212 0.0 2.6 0.00 0.15 0.05 1007.1
20260506103725 54 212 0.0 2.6 0.00 0.15 0.05 1007.5
20260506103153 54 212 0.0 1.7 0.00 0.15 0.05 1007.1
20260506102651 54 212 0.0 0.0 0.00 0.15 0.05 1007.1
20260506102149 53 213 0.0 0.0 0.00 0.15 0.05 1007.5
20260506101648 53 213 0.0 0.0 0.00 0.16 0.05 1007.5
20260506101116 53 213 0.0 0.0 0.00 0.16 0.05 1007.5
20260506100614 53 213 0.0 0.0 0.00 0.16 0.05 1007.1
20260506100113 54 212 0.0 0.0 0.00 0.16 0.05 1006.8
20260506095611 54 212 0.0 0.0 0.00 0.16 0.05 1006.8
20260506095109 54 212 0.0 0.0 0.00 0.16 0.05 1006.8
20260506094608 53 212 0.0 0.0 0.00 0.16 0.05 1006.8
20260506094106 54 212 0.0 0.0 0.00 0.16 0.05 1006.8
20260506093604 54 212 0.0 1.7 0.00 0.16 0.05 1006.8
20260506093101 54 212 0.0 1.7 0.00 0.16 0.05 1006.8
20260506092600 54 212 0.0 0.0 0.00 0.16 0.05 1006.8
20260506092059 54 212 0.0 0.0 0.00 0.16 0.05 1006.8
20260506091558 54 212 0.0 0.0 0.00 0.16 0.05 1006.8
20260506091057 54 212 0.0 0.0 0.00 0.16 0.05 1006.8
20260506090555 54 212 0.0 0.0 0.00 0.16 0.05 1006.8
20260506090053 54 212 0.0 0.0 0.00 0.16 0.05 1007.1
20260506085552 54 212 0.0 0.0 0.00 0.16 0.05 1006.8
20260506085050 54 212 0.0 0.0 0.00 0.16 0.05 1006.8
20260506084516 54 212 0.0 0.0 0.00 0.16 0.05 1007.1
20260506084014 54 212 0.0 0.0 0.00 0.16 0.05 1007.1
20260506083512 54 212 0.0 2.6 0.00 0.16 0.05 1007.1
20260506083010 54 212 0.9 2.6 0.00 0.16 0.05 1007.1
20260506082508 54 212 0.0 2.6 0.00 0.16 0.05 1007.1
20260506082007 54 212 0.0 0.0 0.00 0.16 0.05 1007.1
20260506081435 54 212 0.0 0.0 0.00 0.16 0.05 1007.5
20260506080903 54 212 0.0 0.0 0.00 0.16 0.05 1007.5
20260506080401 54 212 0.0 2.6 0.00 0.16 0.05 1007.5
20260506073352 55 212 0.0 1.7 0.00 0.16 0.05 1007.8
20260506072818 55 212 0.0 1.7 0.00 0.16 0.05 1007.8
20260506072317 55 212 0.0 1.7 0.00 0.16 0.05 1007.8
20260506071816 55 212 0.0 0.0 0.00 0.16 0.05 1007.8
20260506071314 55 212 0.0 0.0 0.00 0.16 0.05 1007.8
20260506070813 55 212 0.0 0.0 0.00 0.16 0.05 1007.8
20260506070311 55 212 0.0 0.0 0.00 0.16 0.05 1007.8
20260506062157 56 212 0.0 3.5 0.00 0.16 0.05 1008.1
20260506061552 56 212 0.0 3.5 0.00 0.16 0.05 1008.1
20260506061049 57 211 1.7 3.5 0.00 0.16 0.05 1008.1
20260506060517 57 209 0.0 5.2 0.00 0.16 0.05 1008.1
20260506051325 59 208 0.9 3.5 0.00 0.16 0.05 1008.5
20260506050823 59 208 2.6 5.2 0.00 0.16 0.05 1008.1
20260506050322 59 208 0.0 5.2 0.00 0.16 0.05 1008.1
20260506044819 60 278 0.0 0.0 0.05 0.16 0.05 1008.1
20260506044316 60 279 0.0 2.6 0.05 0.16 0.05 1008.1
20260506043815 60 278 0.0 2.6 0.05 0.16 0.05 1008.5
20260506043314 60 279 0.0 3.5 0.05 0.16 0.05 1008.5
20260506042811 60 278 0.0 3.5 0.05 0.16 0.05 1008.1
20260506042310 61 278 0.9 3.5 0.05 0.16 0.05 1008.5
20260506041809 61 278 0.9 2.6 0.05 0.16 0.05 1008.5
20260506041237 61 279 0.0 2.6 0.05 0.16 0.05 1008.1
20260506040735 62 278 0.0 5.2 0.05 0.16 0.05 1008.5
20260506040234 62 278 0.0 5.2 0.04 0.15 0.04 1008.1
20260506035732 62 276 1.7 3.5 0.00 0.11 0.11 1008.1
20260506035230 62 274 0.0 2.6 0.00 0.11 0.11 1008.1
20260506034729 62 274 0.0 3.5 0.00 0.11 0.11 1008.5
20260506034227 62 274 1.7 6.1 0.00 0.11 0.11 1008.1
20260506033725 62 274 0.9 6.1 0.00 0.11 0.11 1008.1
20260506033224 62 267 3.5 6.1 0.00 0.11 0.11 1008.1
20260506032722 61 289 3.5 6.1 0.00 0.11 0.11 1008.1
20260506032221 61 209 1.7 5.2 0.00 0.11 0.11 1008.1
20260506031649 61 183 0.0 3.5 0.00 0.11 0.11 1008.1
20260506031116 61 183 1.7 3.5 0.00 0.11 0.11 1008.1
20260506030543 60 183 0.0 2.6 0.00 0.11 0.11 1008.1
20260506030042 60 183 0.0 0.0 0.00 0.11 0.11 1007.8
20260506025540 60 183 0.0 0.0 0.00 0.11 0.11 1007.8
20260506025037 60 183 0.0 0.0 0.00 0.11 0.11 1007.8
20260506024536 60 183 0.0 0.0 0.00 0.11 0.11 1008.1
20260506024034 60 183 0.0 0.0 0.00 0.11 0.11 1008.1
20260506023533 60 183 0.0 0.0 0.00 0.11 0.11 1007.8
20260506023031 60 183 0.0 0.0 0.00 0.11 0.11 1007.8
20260506022529 60 183 0.0 0.0 0.00 0.11 0.11 1007.8
20260506022029 60 183 0.0 0.0 0.00 0.11 0.11 1007.8
20260506021527 60 183 0.0 0.0 0.00 0.11 0.11 1007.8
20260506021026 60 183 0.0 0.0 0.00 0.11 0.11 1007.8
20260506020524 60 183 0.0 0.0 0.00 0.11 0.11 1007.8
20260506020023 60 183 0.0 0.0 0.00 0.11 0.11 1007.8
20260506015522 60 183 0.0 0.0 0.00 0.11 0.11 1007.8
20260506015020 61 183 0.0 2.6 0.00 0.11 0.11 1007.5
20260506014518 61 183 0.0 2.6 0.00 0.11 0.11 1007.5
20260506014015 61 183 0.0 2.6 0.00 0.11 0.11 1007.5
20260506013514 61 183 0.0 2.6 0.00 0.11 0.11 1007.5
20260506013013 61 183 0.0 0.0 0.00 0.11 0.11 1007.1
20260506012511 61 183 0.0 0.0 0.00 0.11 0.11 1007.1
20260506012010 61 183 0.0 0.0 0.00 0.11 0.11 1007.1
20260506011438 62 183 0.0 3.5 0.00 0.11 0.11 1007.1
20260506010936 62 183 0.0 3.5 0.00 0.11 0.11 1006.8
20260506010435 62 183 0.0 3.5 0.00 0.11 0.11 1006.8
20260506005934 62 183 0.0 2.6 0.00 0.11 0.11 1006.8
20260506005432 62 183 0.0 2.6 0.00 0.11 0.11 1006.8
20260506004931 62 183 0.0 2.6 0.00 0.11 0.11 1007.1
20260506004430 62 183 0.9 5.2 0.00 0.11 0.11 1007.1
20260506003857 62 183 0.0 5.2 0.00 0.11 0.11 1006.8
20260506003354 62 178 1.7 5.2 0.00 0.11 0.11 1006.8
20260506002853 61 178 2.6 5.2 0.00 0.11 0.11 1006.8
20260506002320 62 178 0.9 2.6 0.00 0.11 0.11 1006.4
20260506001818 62 178 0.0 2.6 0.00 0.11 0.11 1006.1
20260506001317 62 178 0.0 0.0 0.00 0.11 0.11 1006.1
20260506000642 62 178 0.0 2.6 0.00 0.11 0.11 1006.1
20260506000140 63 178 0.0 2.6 0.00 0.11 0.11 1006.1
20260505235608 63 178 0.9 2.6 0.00 0.11 0.11 1006.1
20260505235107 63 178 0.0 2.6 0.00 0.11 0.11 1006.1
20260505234606 64 178 0.0 2.6 0.00 0.11 0.11 1006.1
20260505234105 64 178 0.9 3.5 0.00 0.11 0.11 1006.1
20260505233604 64 178 0.0 5.2 0.00 0.11 0.11 1006.1
20260505233103 64 178 2.6 5.2 0.00 0.11 0.11 1006.1
20260505232600 65 184 3.5 5.2 0.00 0.11 0.11 1006.1
20260505232059 65 224 1.7 5.2 0.00 0.11 0.11 1005.8
20260505231558 65 251 1.7 5.2 0.00 0.11 0.11 1005.8
20260505231057 65 222 0.9 7.8 0.00 0.11 0.11 1005.4
20260505230554 65 280 2.6 8.7 0.00 0.11 0.11 1005.4
20260505230052 65 280 0.9 8.7 0.00 0.11 0.11 1005.1
20260505225551 65 257 3.5 10.4 0.00 0.11 0.11 1005.1
20260505224947 65 251 2.6 10.4 0.00 0.11 0.11 1005.1
20260505224446 65 259 3.5 16.5 0.00 0.11 0.11 1005.1
20260505223913 65 270 4.3 16.5 0.00 0.11 0.11 1005.1
20260505223412 65 283 7.0 19.1 0.00 0.11 0.11 1005.1
20260505222910 65 266 6.1 19.1 0.00 0.11 0.11 1005.4
20260505222408 66 262 6.1 19.1 0.00 0.11 0.11 1005.4
20260505221907 66 272 9.6 17.4 0.00 0.11 0.11 1005.4
20260505221405 66 282 6.1 16.5 0.00 0.11 0.11 1005.4
20260505220832 67 279 8.7 17.4 0.00 0.11 0.11 1005.8
20260505220332 67 277 6.1 17.4 0.00 0.11 0.11 1005.8
20260505215830 68 279 6.1 19.1 0.00 0.11 0.11 1005.8
20260505215329 68 277 10.4 19.1 0.00 0.11 0.11 1005.8
20260505214828 68 264 7.0 19.1 0.00 0.11 0.11 1005.8
20260505214327 68 269 7.0 17.4 0.00 0.11 0.11 1005.4
20260505213825 68 270 7.0 17.4 0.00 0.11 0.11 1005.1
20260505213322 68 282 7.8 15.6 0.00 0.11 0.11 1004.7
20260505212821 68 322 4.3 13.0 0.00 0.11 0.11 1004.4
20260505212319 69 288 5.2 16.5 0.00 0.11 0.11 1004.4
20260505211817 69 275 6.1 26.9 0.00 0.11 0.11 1004.7
20260505211316 69 267 6.1 26.9 0.00 0.11 0.11 1004.7
20260505210814 70 293 8.7 26.9 0.00 0.11 0.11 1004.7
20260505210312 70 284 3.5 20.9 0.00 0.11 0.11 1004.7
20260505205811 70 284 9.6 20.9 0.00 0.11 0.11 1004.7
20260505205310 70 281 5.2 13.9 0.00 0.11 0.11 1004.4
20260505204807 71 284 3.5 8.7 0.00 0.11 0.11 1004.1
20260505204306 71 272 4.3 8.7 0.01 0.11 0.11 1003.7
20260505203805 70 319 0.9 6.1 0.05 0.11 0.11 1003.4
20260505203304 70 256 2.6 7.8 0.10 0.11 0.11 1003.4
20260505202730 69 285 2.6 7.8 0.10 0.11 0.11 1003.4